Location: Newark
(48.9320°N, 2.2664°E)
Time: 00:18:55
(UTC+00:00)

Transit 2A Rocket - Visible Passes

Search period start: 24 February 2020 00:00
Search period end: 05 March 2020 00:00
Orbit: 591 x 912 km, 66.7° (Epoch: 23 February)

Date Brightness Start Highest point End Pass type
(mag) Time Alt. Az. Time Alt. Az. Time Alt. Az.
24 Feb 7.5 03:30:13 10° N 03:32:26 13° NNE 03:34:45 10° NE visible
24 Feb 6.4 05:11:46 10° NNW 05:16:25 36° NE 05:21:28 10° ESE visible
25 Feb 7.7 02:48:38 10° N 02:49:18 11° NNE 02:50:29 10° NNE visible
25 Feb 6.9 04:29:24 10° NNW 04:33:36 26° NE 04:38:07 10° E visible
25 Feb 5.1 06:11:32 10° NW 06:16:40 76° WSW 06:22:16 10° SSE visible
26 Feb 7.3 03:47:06 10° NNW 03:50:42 19° NNE 03:54:30 10° ENE visible
26 Feb 5.3 05:29:00 10° NNW 05:34:06 71° NE 05:39:41 10° SE visible
27 Feb 7.5 03:05:34 12° N 03:07:41 15° NNE 03:10:40 10° ENE visible
27 Feb 6.0 04:46:32 10° NNW 04:51:27 47° NE 04:56:47 10° ESE visible
28 Feb 7.7 02:24:09 12° NNE 02:24:35 12° NNE 02:26:38 10° NE visible
28 Feb 6.6 04:04:08 10° NNW 04:08:42 32° NE 04:13:36 10° ESE visible
28 Feb 5.2 05:46:27 10° NW 05:51:33 57° WSW 05:57:04 10° SSE visible
29 Feb 7.1 03:22:40 14° N 03:25:51 24° NE 03:30:11 10° E visible
29 Feb 5.0 05:03:51 10° NW 05:09:02 88° SW 05:14:42 10° SSE visible
01 Mar 7.4 02:41:22 16° N 02:42:54 18° NNE 02:46:30 10° ENE visible
01 Mar 5.5 04:21:20 10° NNW 04:26:26 61° NE 04:32:00 10° SE visible
02 Mar 7.7 02:00:11 14° NNE 02:00:11 14° NNE 02:02:36 10° NE visible
02 Mar 6.2 03:40:06 17° NNW 03:43:44 41° NE 03:49:00 10° ESE visible
02 Mar 5.5 05:21:27 10° NW 05:26:23 42° WSW 05:31:43 10° S visible
02 Mar 6.6 20:00:12 10° SSW 20:01:09 16° SSW 20:01:09 16° SSW visible
03 Mar 6.8 02:59:03 23° N 03:00:58 29° NE 03:05:44 10° E visible
03 Mar 5.0 04:39:00 11° NW 04:43:56 67° WSW 04:49:34 10° SSE visible
03 Mar 5.1 19:18:09 10° S 19:21:48 34° ESE 19:21:48 34° ESE visible
03 Mar 6.9 21:00:31 10° WSW 21:01:51 18° W 21:01:51 18° W visible
04 Mar 7.2 02:18:14 22° NE 02:18:14 22° NE 02:22:13 10° E visible
04 Mar 5.1 03:58:11 25° NNW 04:01:23 80° NE 04:07:04 10° SE visible
04 Mar 6.4 05:39:43 10° WNW 05:43:30 20° WSW 05:47:29 10° SSW visible
04 Mar 5.8 18:36:36 10° SSE 18:39:48 20° ESE 18:42:24 13° ENE visible
04 Mar 5.1 20:17:35 10° SW 20:21:53 57° NW 20:22:27 52° NNW visible
